Time,TemperatureF,DewpointF,PressureIn,WindDirection,WindDirectionDegrees,WindSpeedMPH,WindSpeedGustMPH,Humidity,HourlyPrecipIn,Conditions,Clouds,dailyrainin,SoftwareType,DateUTC
2013-02-18 00:00:00,23.9,13.9,30.32,NE,43,0.0,0.0,65,0.00,,---,0.00,VWS V14.01,2013-02-18 05:00:00,
2013-02-18 00:05:00,23.9,13.9,30.32,NE,41,0.0,1.0,65,0.00,,---,0.00,VWS V14.01,2013-02-18 05:05:00,
2013-02-18 00:10:00,23.9,14.2,30.32,NE,37,0.0,0.0,66,0.00,,---,0.00,VWS V14.01,2013-02-18 05:10:00,
2013-02-18 00:15:00,23.9,13.5,30.32,NE,37,0.0,1.0,64,0.00,,---,0.00,VWS V14.01,2013-02-18 05:15:00,
2013-02-18 00:20:00,24.2,12.7,30.33,NE,34,0.0,1.0,61,0.00,,---,0.00,VWS V14.01,2013-02-18 05:20:00,
2013-02-18 00:25:00,24.2,13.4,30.33,North,360,0.0,1.0,63,0.00,,---,0.00,VWS V14.01,2013-02-18 05:25:00,
2013-02-18 00:30:00,24.2,14.1,30.33,NNE,15,0.0,1.0,65,0.00,,---,0.00,VWS V14.01,2013-02-18 05:30:00,
2013-02-18 00:35:00,24.1,13.7,30.33,NE,43,0.0,1.0,64,0.00,,---,0.00,VWS V14.01,2013-02-18 05:35:00,
2013-02-18 00:40:00,24.1,13.7,30.32,NE,43,0.0,0.0,64,0.00,,---,0.00,VWS V14.01,2013-02-18 05:40:00,
2013-02-18 00:45:00,24.1,13.7,30.33,NE,44,1.0,1.0,64,0.00,,---,0.00,VWS V14.01,2013-02-18 05:45:00,
2013-02-18 00:50:00,24.1,13.7,30.32,NE,53,0.0,0.0,64,0.00,,---,0.00,VWS V14.01,2013-02-18 05:50:00,
2013-02-18 00:55:00,24.1,14.1,30.33,NE,45,1.0,1.0,65,0.00,,---,0.00,VWS V14.01,2013-02-18 05:55:00,
2013-02-18 01:00:00,24.1,14.1,30.33,NE,46,0.0,0.0,65,0.00,,---,0.00,VWS V14.01,2013-02-18 06:00:00,
2013-02-18 01:05:00,24.1,13.7,30.33,NE,46,0.0,0.0,64,0.00,,---,0.00,VWS V14.01,2013-02-18 06:05:00,
2013-02-18 01:10:00,24.2,14.5,30.33,NE,45,0.0,1.0,66,0.00,,---,0.00,VWS V14.01,2013-02-18 06:10:00,
2013-02-18 01:15:00,24.1,14.1,30.33,NE,46,0.0,0.0,65,0.00,,---,0.00,VWS V14.01,2013-02-18 06:15:00,
2013-02-18 01:20:00,24.2,13.8,30.33,NE,39,1.0,2.0,64,0.00,,---,0.00,VWS V14.01,2013-02-18 06:20:00,
2013-02-18 01:25:00,24.2,13.4,30.33,NE,39,0.0,1.0,63,0.00,,---,0.00,VWS V14.01,2013-02-18 06:25:00,
2013-02-18 01:30:00,24.3,14.6,30.33,NE,39,0.0,2.0,66,0.00,,---,0.00,VWS V14.01,2013-02-18 06:30:00,
2013-02-18 01:35:00,24.4,13.6,30.34,NE,39,1.0,1.0,63,0.00,,---,0.00,VWS V14.01,2013-02-18 06:35:00,
2013-02-18 01:40:00,24.5,14.4,30.34,NE,44,0.0,1.0,65,0.00,,---,0.00,VWS V14.01,2013-02-18 06:40:00,
2013-02-18 01:45:00,24.4,14.3,30.34,NE,44,1.0,1.0,65,0.00,,---,0.00,VWS V14.01,2013-02-18 06:45:00,
2013-02-18 01:50:00,24.6,14.9,30.34,NE,48,1.0,2.0,66,0.00,,---,0.00,VWS V14.01,2013-02-18 06:50:00,
2013-02-18 01:55:00,24.5,14.8,30.34,NE,47,1.0,2.0,66,0.00,,---,0.00,VWS V14.01,2013-02-18 06:55:00,
2013-02-18 02:00:00,24.6,13.8,30.34,NE,41,0.0,1.0,63,0.00,,---,0.00,VWS V14.01,2013-02-18 07:00:00,
2013-02-18 02:05:00,24.6,15.2,30.34,NE,40,1.0,2.0,67,0.00,,---,0.00,VWS V14.01,2013-02-18 07:05:00,
2013-02-18 02:10:00,24.7,14.3,30.34,NE,41,1.0,1.0,64,0.00,,---,0.00,VWS V14.01,2013-02-18 07:10:00,
2013-02-18 02:15:00,24.7,15.0,30.34,NE,41,1.0,2.0,66,0.00,,---,0.00,VWS V14.01,2013-02-18 07:15:00,
2013-02-18 02:20:00,24.9,15.2,30.34,NE,50,0.0,1.0,66,0.00,,---,0.00,VWS V14.01,2013-02-18 07:20:00,
2013-02-18 02:25:00,24.9,15.2,30.33,NE,51,1.0,1.0,66,0.00,,---,0.00,VWS V14.01,2013-02-18 07:25:00,
2013-02-18 02:30:00,25.0,15.3,30.33,NE,47,2.0,2.0,66,0.00,,---,0.00,VWS V14.01,2013-02-18 07:30:00,
2013-02-18 02:35:00,25.3,15.2,30.33,NE,47,1.0,1.0,65,0.00,,---,0.00,VWS V14.01,2013-02-18 07:35:00,
2013-02-18 02:40:00,25.3,16.2,30.33,NE,37,0.0,2.0,68,0.00,,---,0.00,VWS V14.01,2013-02-18 07:40:00,
2013-02-18 02:45:00,25.4,16.3,30.33,NE,53,1.0,2.0,68,0.00,,---,0.00,VWS V14.01,2013-02-18 07:45:00,
2013-02-18 02:50:00,25.6,16.2,30.33,NE,53,1.0,1.0,67,0.00,,---,0.00,VWS V14.01,2013-02-18 07:50:00,
2013-02-18 02:55:00,25.8,15.3,30.33,NNE,18,0.0,1.0,64,0.00,,---,0.00,VWS V14.01,2013-02-18 07:55:00,
2013-02-18 03:00:00,26.0,16.6,30.33,NNE,25,1.0,1.0,67,0.00,,---,0.00,VWS V14.01,2013-02-18 08:00:00,
2013-02-18 03:05:00,26.1,17.0,30.33,NE,49,1.0,1.0,68,0.00,,---,0.00,VWS V14.01,2013-02-18 08:05:00,
2013-02-18 03:10:00,26.1,17.3,30.33,NE,48,0.0,1.0,69,0.00,,---,0.00,VWS V14.01,2013-02-18 08:10:00,
2013-02-18 03:15:00,26.0,17.2,30.33,NE,49,0.0,1.0,69,0.00,,---,0.00,VWS V14.01,2013-02-18 08:15:00,
2013-02-18 03:20:00,26.1,17.3,30.34,NE,48,0.0,0.0,69,0.00,,---,0.00,VWS V14.01,2013-02-18 08:20:00,
2013-02-18 03:25:00,25.9,16.5,30.34,NE,49,0.0,0.0,67,0.00,,---,0.00,VWS V14.01,2013-02-18 08:25:00,
2013-02-18 03:30:00,25.8,16.4,30.34,NE,48,0.0,0.0,67,0.00,,---,0.00,VWS V14.01,2013-02-18 08:30:00,
2013-02-18 03:35:00,25.3,16.6,30.34,NE,49,0.0,0.0,69,0.00,,---,0.00,VWS V14.01,2013-02-18 08:35:00,
2013-02-18 03:40:00,24.6,17.2,30.35,NE,48,0.0,0.0,73,0.00,,---,0.00,VWS V14.01,2013-02-18 08:40:00,
2013-02-18 03:45:00,24.0,16.6,30.35,NE,48,0.0,0.0,73,0.00,,---,0.00,VWS V14.01,2013-02-18 08:45:00,
2013-02-18 03:50:00,23.7,17.0,30.34,NE,48,0.0,0.0,75,0.00,,---,0.00,VWS V14.01,2013-02-18 08:50:00,
2013-02-18 03:55:00,23.4,16.7,30.35,NE,48,0.0,0.0,75,0.00,,---,0.00,VWS V14.01,2013-02-18 08:55:00,
2013-02-18 04:00:00,23.2,16.2,30.35,NE,48,0.0,0.0,74,0.00,,---,0.00,VWS V14.01,2013-02-18 09:00:00,
2013-02-18 04:05:00,23.2,16.5,30.35,NE,49,0.0,0.0,75,0.00,,---,0.00,VWS V14.01,2013-02-18 09:05:00,
2013-02-18 04:10:00,23.0,16.6,30.35,NE,49,0.0,0.0,76,0.00,,---,0.00,VWS V14.01,2013-02-18 09:10:00,
2013-02-18 04:15:00,22.8,16.7,30.35,NE,48,0.0,0.0,77,0.00,,---,0.00,VWS V14.01,2013-02-18 09:15:00,
2013-02-18 04:20:00,22.8,16.4,30.36,NE,49,0.0,0.0,76,0.00,,---,0.00,VWS V14.01,2013-02-18 09:20:00,
2013-02-18 04:25:00,22.7,16.9,30.35,NE,48,0.0,0.0,78,0.00,,---,0.00,VWS V14.01,2013-02-18 09:25:00,
2013-02-18 04:30:00,22.4,16.6,30.35,NE,48,0.0,0.0,78,0.00,,---,0.00,VWS V14.01,2013-02-18 09:30:00,
2013-02-18 04:35:00,22.2,16.4,30.36,NE,49,0.0,0.0,78,0.00,,---,0.00,VWS V14.01,2013-02-18 09:35:00,
2013-02-18 04:40:00,22.1,16.9,30.36,NE,48,0.0,0.0,80,0.00,,---,0.00,VWS V14.01,2013-02-18 09:40:00,
2013-02-18 04:45:00,21.9,16.7,30.36,NE,49,0.0,0.0,80,0.00,,---,0.00,VWS V14.01,2013-02-18 09:45:00,
2013-02-18 04:50:00,21.9,15.5,30.36,NE,48,0.0,0.0,76,0.00,,---,0.00,VWS V14.01,2013-02-18 09:50:00,
2013-02-18 04:55:00,22.0,16.2,30.36,NE,48,0.0,0.0,78,0.00,,---,0.00,VWS V14.01,2013-02-18 09:55:00,
2013-02-18 05:00:00,21.9,16.4,30.36,NNE,18,0.0,0.0,79,0.00,,---,0.00,VWS V14.01,2013-02-18 10:00:00,
2013-02-18 05:05:00,22.0,15.9,30.37,NNE,18,0.0,0.0,77,0.00,,---,0.00,VWS V14.01,2013-02-18 10:05:00,
2013-02-18 05:10:00,22.0,16.5,30.37,NNE,18,0.0,0.0,79,0.00,,---,0.00,VWS V14.01,2013-02-18 10:10:00,
2013-02-18 05:15:00,22.0,16.8,30.38,NNE,18,0.0,1.0,80,0.00,,---,0.00,VWS V14.01,2013-02-18 10:15:00,
2013-02-18 05:20:00,22.1,16.0,30.38,NNE,18,0.0,0.0,77,0.00,,---,0.00,VWS V14.01,2013-02-18 10:20:00,
2013-02-18 05:25:00,22.0,16.2,30.38,NNE,18,0.0,0.0,78,0.00,,---,0.00,VWS V14.01,2013-02-18 10:25:00,
2013-02-18 05:30:00,21.9,16.4,30.38,NNE,18,0.0,0.0,79,0.00,,---,0.00,VWS V14.01,2013-02-18 10:30:00,
2013-02-18 05:35:00,21.9,15.8,30.38,NNE,18,0.0,0.0,77,0.00,,---,0.00,VWS V14.01,2013-02-18 10:35:00,
2013-02-18 05:40:00,21.9,14.9,30.39,NNE,18,0.0,0.0,74,0.00,,---,0.00,VWS V14.01,2013-02-18 10:40:00,
2013-02-18 05:45:00,22.1,14.5,30.38,NNE,18,0.0,0.0,72,0.00,,---,0.00,VWS V14.01,2013-02-18 10:45:00,
2013-02-18 05:50:00,22.2,14.6,30.39,NNE,18,0.0,0.0,72,0.00,,---,0.00,VWS V14.01,2013-02-18 10:50:00,
2013-02-18 05:55:00,22.3,15.6,30.39,NNE,18,0.0,0.0,75,0.00,,---,0.00,VWS V14.01,2013-02-18 10:55:00,
2013-02-18 06:00:00,22.4,15.1,30.39,NNE,18,0.0,0.0,73,0.00,,---,0.00,VWS V14.01,2013-02-18 11:00:00,
2013-02-18 06:05:00,22.5,15.2,30.39,NNE,18,0.0,0.0,73,0.00,,---,0.00,VWS V14.01,2013-02-18 11:05:00,
2013-02-18 06:10:00,22.4,15.1,30.39,NNE,18,0.0,0.0,73,0.00,,---,0.00,VWS V14.01,2013-02-18 11:10:00,
2013-02-18 06:15:00,22.2,15.5,30.39,NNE,18,0.0,0.0,75,0.00,,---,0.00,VWS V14.01,2013-02-18 11:15:00,
2013-02-18 06:20:00,22.2,15.5,30.39,NNE,18,0.0,0.0,75,0.00,,---,0.00,VWS V14.01,2013-02-18 11:20:00,
2013-02-18 06:25:00,22.4,15.4,30.39,NNE,18,0.0,0.0,74,0.00,,---,0.00,VWS V14.01,2013-02-18 11:25:00,
2013-02-18 06:30:00,22.6,14.6,30.39,NNE,18,0.0,0.0,71,0.00,,---,0.00,VWS V14.01,2013-02-18 11:30:00,
2013-02-18 06:35:00,22.7,14.4,30.39,NNE,18,0.0,0.0,70,0.00,,---,0.00,VWS V14.01,2013-02-18 11:35:00,
2013-02-18 06:40:00,22.8,13.5,30.39,NNE,18,0.0,0.0,67,0.00,,---,0.00,VWS V14.01,2013-02-18 11:40:00,
2013-02-18 06:45:00,22.9,14.6,30.39,NNE,18,0.0,0.0,70,0.00,,---,0.00,VWS V14.01,2013-02-18 11:45:00,
2013-02-18 06:50:00,22.9,14.9,30.39,NNE,18,0.0,0.0,71,0.00,,---,0.00,VWS V14.01,2013-02-18 11:50:00,
2013-02-18 06:56:00,22.9,13.6,30.39,NNE,18,0.0,0.0,67,0.00,,---,0.00,VWS V14.01,2013-02-18 11:56:00,
2013-02-18 07:01:00,23.0,15.0,30.39,NNE,18,0.0,0.0,71,0.00,,---,0.00,VWS V14.01,2013-02-18 12:01:00,
2013-02-18 07:06:00,23.1,15.1,30.39,NNE,18,0.0,0.0,71,0.00,,---,0.00,VWS V14.01,2013-02-18 12:06:00,
2013-02-18 07:11:00,23.0,16.3,30.39,NNE,18,0.0,0.0,75,0.00,,---,0.00,VWS V14.01,2013-02-18 12:11:00,
2013-02-18 07:16:00,23.0,15.6,30.40,NNE,18,0.0,0.0,73,0.00,,---,0.00,VWS V14.01,2013-02-18 12:16:00,
2013-02-18 07:21:00,23.1,16.7,30.40,NNE,18,0.0,0.0,76,0.00,,---,0.00,VWS V14.01,2013-02-18 12:21:00,
2013-02-18 07:26:00,23.3,17.2,30.40,NNE,18,0.0,0.0,77,0.00,,---,0.00,VWS V14.01,2013-02-18 12:26:00,
2013-02-18 07:31:00,23.5,16.5,30.40,NNE,18,0.0,0.0,74,0.00,,---,0.00,VWS V14.01,2013-02-18 12:31:00,
2013-02-18 07:36:00,23.6,16.2,30.39,NNE,18,0.0,0.0,73,0.00,,---,0.00,VWS V14.01,2013-02-18 12:36:00,
2013-02-18 07:41:00,23.7,16.6,30.39,NNE,18,0.0,0.0,74,0.00,,---,0.00,VWS V14.01,2013-02-18 12:41:00,
2013-02-18 07:46:00,23.6,16.9,30.40,NNE,18,0.0,0.0,75,0.00,,---,0.00,VWS V14.01,2013-02-18 12:46:00,
2013-02-18 07:51:00,23.8,14.1,30.39,NNE,18,0.0,0.0,66,0.00,,---,0.00,VWS V14.01,2013-02-18 12:51:00,
2013-02-18 07:56:00,24.1,12.6,30.39,NNE,18,0.0,0.0,61,0.00,,---,0.00,VWS V14.01,2013-02-18 12:56:00,
2013-02-18 08:01:00,24.3,15.9,30.39,NNE,18,0.0,0.0,70,0.00,,---,0.00,VWS V14.01,2013-02-18 13:01:00,
2013-02-18 08:06:00,24.4,17.0,30.39,NNE,18,0.0,0.0,73,0.00,,---,0.00,VWS V14.01,2013-02-18 13:06:00,
2013-02-18 08:11:00,24.7,16.3,30.39,NNE,18,0.0,0.0,70,0.00,,---,0.00,VWS V14.01,2013-02-18 13:11:00,
2013-02-18 08:16:00,25.0,15.6,30.40,NNE,18,0.0,0.0,67,0.00,,---,0.00,VWS V14.01,2013-02-18 13:16:00,
2013-02-18 08:21:00,25.3,16.6,30.39,NNE,18,0.0,0.0,69,0.00,,---,0.00,VWS V14.01,2013-02-18 13:21:00,
2013-02-18 08:26:00,25.3,16.2,30.39,NNE,18,0.0,0.0,68,0.00,,---,0.00,VWS V14.01,2013-02-18 13:26:00,
2013-02-18 08:31:00,25.5,17.8,30.40,NNE,18,0.0,0.0,72,0.00,,---,0.00,VWS V14.01,2013-02-18 13:31:00,
2013-02-18 08:36:00,25.7,17.6,30.39,NNE,18,0.0,0.0,71,0.00,,---,0.00,VWS V14.01,2013-02-18 13:36:00,
2013-02-18 08:41:00,26.0,18.2,30.40,NNE,18,0.0,0.0,72,0.00,,---,0.00,VWS V14.01,2013-02-18 13:41:00,
2013-02-18 08:46:00,26.3,16.5,30.40,NNE,18,0.0,0.0,66,0.00,,---,0.00,VWS V14.01,2013-02-18 13:46:00,
2013-02-18 08:51:00,26.6,17.1,30.40,NNE,18,0.0,0.0,67,0.00,,---,0.00,VWS V14.01,2013-02-18 13:51:00,
2013-02-18 08:56:00,26.9,17.4,30.40,NNE,18,0.0,0.0,67,0.00,,---,0.00,VWS V14.01,2013-02-18 13:56:00,
2013-02-18 09:01:00,27.1,18.6,30.41,NNE,18,0.0,0.0,70,0.00,,---,0.00,VWS V14.01,2013-02-18 14:01:00,
2013-02-18 09:06:00,27.3,18.8,30.41,NNE,18,0.0,0.0,70,0.00,,---,0.00,VWS V14.01,2013-02-18 14:06:00,
2013-02-18 09:11:00,27.8,18.3,30.41,NNE,18,0.0,0.0,67,0.00,,---,0.00,VWS V14.01,2013-02-18 14:11:00,
2013-02-18 09:16:00,28.3,18.8,30.41,NNE,18,0.0,0.0,67,0.00,,---,0.00,VWS V14.01,2013-02-18 14:16:00,
2013-02-18 09:21:00,28.8,18.9,30.41,NNE,18,0.0,0.0,66,0.00,,---,0.00,VWS V14.01,2013-02-18 14:21:00,
2013-02-18 09:26:00,29.3,19.7,30.40,NNE,18,0.0,0.0,67,0.00,,---,0.00,VWS V14.01,2013-02-18 14:26:00,
2013-02-18 09:31:00,30.0,19.7,30.40,NNE,18,0.0,0.0,65,0.00,,---,0.00,VWS V14.01,2013-02-18 14:31:00,
2013-02-18 09:36:00,30.9,19.8,30.40,NNE,18,0.0,0.0,63,0.00,,---,0.00,VWS V14.01,2013-02-18 14:36:00,
2013-02-18 09:41:00,31.9,20.4,30.40,NNE,18,0.0,0.0,62,0.00,,---,0.00,VWS V14.01,2013-02-18 14:41:00,
2013-02-18 09:46:00,32.6,21.0,30.40,NNE,18,0.0,0.0,62,0.00,,---,0.00,VWS V14.01,2013-02-18 14:46:00,
2013-02-18 09:51:00,33.2,20.8,30.40,NNE,18,0.0,0.0,60,0.00,,---,0.00,VWS V14.01,2013-02-18 14:51:00,
2013-02-18 09:56:00,33.7,20.1,30.40,NNE,18,0.0,0.0,57,0.00,,---,0.00,VWS V14.01,2013-02-18 14:56:00,
2013-02-18 10:01:00,34.1,19.2,30.40,West,271,1.0,1.0,54,0.00,,---,0.00,VWS V14.01,2013-02-18 15:01:00,
2013-02-18 10:06:00,35.0,20.9,30.40,West,271,0.0,0.0,56,0.00,,---,0.00,VWS V14.01,2013-02-18 15:06:00,
2013-02-18 10:11:00,35.5,21.8,30.39,West,271,0.0,0.0,57,0.00,,---,0.00,VWS V14.01,2013-02-18 15:11:00,
2013-02-18 10:16:00,35.7,22.0,30.39,West,272,0.0,0.0,57,0.00,,---,0.00,VWS V14.01,2013-02-18 15:16:00,
2013-02-18 10:21:00,36.5,20.6,30.39,SSE,167,0.0,0.0,52,0.00,,---,0.00,VWS V14.01,2013-02-18 15:21:00,
2013-02-18 10:26:00,37.4,21.4,30.39,West,267,2.0,2.0,52,0.00,,---,0.00,VWS V14.01,2013-02-18 15:26:00,
2013-02-18 10:31:00,38.0,21.0,30.39,SW,221,2.0,2.0,50,0.00,,---,0.00,VWS V14.01,2013-02-18 15:31:00,
2013-02-18 10:36:00,38.4,21.4,30.39,SSW,197,1.0,1.0,50,0.00,,---,0.00,VWS V14.01,2013-02-18 15:36:00,
2013-02-18 10:41:00,38.8,21.3,30.39,SSE,167,1.0,2.0,49,0.00,,---,0.00,VWS V14.01,2013-02-18 15:41:00,
2013-02-18 10:46:00,39.0,21.5,30.39,WSW,248,1.0,2.0,49,0.00,,---,0.00,VWS V14.01,2013-02-18 15:46:00,
2013-02-18 10:51:00,39.3,21.8,30.39,WSW,252,0.0,0.0,49,0.00,,---,0.00,VWS V14.01,2013-02-18 15:51:00,
2013-02-18 10:56:00,39.4,21.4,30.39,SSE,162,1.0,1.0,48,0.00,,---,0.00,VWS V14.01,2013-02-18 15:56:00,
2013-02-18 11:01:00,39.6,22.0,30.39,SSE,165,1.0,2.0,49,0.00,,---,0.00,VWS V14.01,2013-02-18 16:01:00,
2013-02-18 11:06:00,40.1,23.0,30.38,South,176,1.0,1.0,50,0.00,,---,0.00,VWS V14.01,2013-02-18 16:06:00,
2013-02-18 11:11:00,40.6,21.5,30.38,SSW,199,0.0,0.0,46,0.00,,---,0.00,VWS V14.01,2013-02-18 16:11:00,
2013-02-18 11:16:00,41.3,22.6,30.38,South,190,0.0,0.0,47,0.00,,---,0.00,VWS V14.01,2013-02-18 16:16:00,
2013-02-18 11:21:00,42.1,22.3,30.38,SSW,201,0.0,0.0,45,0.00,,---,0.00,VWS V14.01,2013-02-18 16:21:00,
2013-02-18 11:26:00,42.7,22.3,30.38,South,172,0.0,1.0,44,0.00,,---,0.00,VWS V14.01,2013-02-18 16:26:00,
2013-02-18 11:31:00,43.2,23.3,30.38,SSW,199,2.0,2.0,45,0.00,,---,0.00,VWS V14.01,2013-02-18 16:31:00,
2013-02-18 11:36:00,43.5,23.0,30.38,South,169,1.0,1.0,44,0.00,,---,0.00,VWS V14.01,2013-02-18 16:36:00,
2013-02-18 11:41:00,44.0,23.0,30.37,South,191,1.0,1.0,43,0.00,,---,0.00,VWS V14.01,2013-02-18 16:41:00,
2013-02-18 11:46:00,44.3,22.1,30.37,South,169,0.0,0.0,41,0.00,,---,0.00,VWS V14.01,2013-02-18 16:46:00,
2013-02-18 11:51:00,44.9,22.6,30.37,SSE,158,2.0,2.0,41,0.00,,---,0.00,VWS V14.01,2013-02-18 16:51:00,
2013-02-18 11:56:00,45.3,23.6,30.37,SE,138,0.0,0.0,42,0.00,,---,0.00,VWS V14.01,2013-02-18 16:56:00,
2013-02-18 12:01:00,45.3,23.0,30.36,WNW,297,2.0,3.0,41,0.00,,---,0.00,VWS V14.01,2013-02-18 17:01:00,
2013-02-18 12:06:00,45.5,23.2,30.36,NNE,25,1.0,1.0,41,0.00,,---,0.00,VWS V14.01,2013-02-18 17:06:00,
2013-02-18 12:11:00,45.9,24.1,30.35,ENE,58,2.0,3.0,42,0.00,,---,0.00,VWS V14.01,2013-02-18 17:11:00,
2013-02-18 12:16:00,46.6,23.6,30.35,WNW,294,0.0,0.0,40,0.00,,---,0.00,VWS V14.01,2013-02-18 17:16:00,
2013-02-18 12:21:00,47.2,24.1,30.34,NE,47,1.0,2.0,40,0.00,,---,0.00,VWS V14.01,2013-02-18 17:21:00,
2013-02-18 12:26:00,47.5,24.4,30.34,West,266,4.0,4.0,40,0.00,,---,0.00,VWS V14.01,2013-02-18 17:26:00,
2013-02-18 12:31:00,47.6,24.5,30.34,SW,229,1.0,1.0,40,0.00,,---,0.00,VWS V14.01,2013-02-18 17:31:00,
2013-02-18 12:36:00,48.3,25.1,30.34,NW,305,4.0,4.0,40,0.00,,---,0.00,VWS V14.01,2013-02-18 17:36:00,
2013-02-18 12:41:00,48.5,24.7,30.34,SSE,159,1.0,2.0,39,0.00,,---,0.00,VWS V14.01,2013-02-18 17:41:00,
2013-02-18 12:46:00,49.0,25.1,30.34,WSW,242,0.0,1.0,39,0.00,,---,0.00,VWS V14.01,2013-02-18 17:46:00,
2013-02-18 12:51:00,49.7,25.8,30.33,SSW,200,1.0,2.0,39,0.00,,---,0.00,VWS V14.01,2013-02-18 17:51:00,
2013-02-18 12:56:00,50.3,26.3,30.33,WSW,243,4.0,4.0,39,0.00,,---,0.00,VWS V14.01,2013-02-18 17:56:00,
2013-02-18 13:01:00,50.3,26.3,30.33,West,276,2.0,2.0,39,0.00,,---,0.00,VWS V14.01,2013-02-18 18:01:00,
2013-02-18 13:06:00,50.6,26.0,30.33,SSW,207,1.0,1.0,38,0.00,,---,0.00,VWS V14.01,2013-02-18 18:06:00,
2013-02-18 13:11:00,50.5,25.9,30.32,West,268,4.0,5.0,38,0.00,,---,0.00,VWS V14.01,2013-02-18 18:11:00,
2013-02-18 13:16:00,50.2,25.6,30.32,West,273,3.0,4.0,38,0.00,,---,0.00,VWS V14.01,2013-02-18 18:16:00,
2013-02-18 13:21:00,49.8,25.2,30.32,ESE,107,0.0,0.0,38,0.00,,---,0.00,VWS V14.01,2013-02-18 18:21:00,
2013-02-18 13:26:00,49.9,25.3,30.31,SW,218,5.0,7.0,38,0.00,,---,0.00,VWS V14.01,2013-02-18 18:26:00,
2013-02-18 13:31:00,49.9,25.3,30.31,West,276,2.0,6.0,38,0.00,,---,0.00,VWS V14.01,2013-02-18 18:31:00,
2013-02-18 13:36:00,49.9,24.7,30.31,WSW,243,5.0,5.0,37,0.00,,---,0.00,VWS V14.01,2013-02-18 18:36:00,
2013-02-18 13:41:00,50.2,25.6,30.31,WNW,291,3.0,3.0,38,0.00,,---,0.00,VWS V14.01,2013-02-18 18:41:00,
2013-02-18 13:46:00,50.0,25.4,30.30,South,169,1.0,3.0,38,0.00,,---,0.00,VWS V14.01,2013-02-18 18:46:00,
2013-02-18 13:51:00,50.0,24.1,30.30,WNW,293,5.0,6.0,36,0.00,,---,0.00,VWS V14.01,2013-02-18 18:51:00,
2013-02-18 13:56:00,50.1,25.5,30.30,WNW,292,5.0,7.0,38,0.00,,---,0.00,VWS V14.01,2013-02-18 18:56:00,
2013-02-18 14:01:00,50.1,24.2,30.30,WSW,240,3.0,3.0,36,0.00,,---,0.00,VWS V14.01,2013-02-18 19:01:00,
2013-02-18 14:06:00,49.9,24.7,30.29,WNW,288,6.0,6.0,37,0.00,,---,0.00,VWS V14.01,2013-02-18 19:06:00,
2013-02-18 14:11:00,50.1,24.9,30.29,WSW,248,5.0,5.0,37,0.00,,---,0.00,VWS V14.01,2013-02-18 19:11:00,
2013-02-18 14:16:00,50.1,24.2,30.28,WSW,256,3.0,9.0,36,0.00,,---,0.00,VWS V14.01,2013-02-18 19:16:00,
2013-02-18 14:21:00,50.2,25.0,30.28,SE,139,0.0,2.0,37,0.00,,---,0.00,VWS V14.01,2013-02-18 19:21:00,
2013-02-18 14:26:00,50.1,24.9,30.28,NNW,327,2.0,3.0,37,0.00,,---,0.00,VWS V14.01,2013-02-18 19:26:00,
2013-02-18 14:31:00,50.5,24.6,30.28,WSW,249,7.0,9.0,36,0.00,,---,0.00,VWS V14.01,2013-02-18 19:31:00,
2013-02-18 14:36:00,50.3,25.0,30.28,West,280,11.0,12.0,37,0.00,,---,0.00,VWS V14.01,2013-02-18 19:36:00,
2013-02-18 14:41:00,50.4,24.5,30.27,West,259,6.0,6.0,36,0.00,,---,0.00,VWS V14.01,2013-02-18 19:41:00,
2013-02-18 14:46:00,50.4,24.5,30.28,WNW,288,5.0,5.0,36,0.00,,---,0.00,VWS V14.01,2013-02-18 19:46:00,
2013-02-18 14:51:00,50.2,23.6,30.27,West,271,6.0,8.0,35,0.00,,---,0.00,VWS V14.01,2013-02-18 19:51:00,
2013-02-18 14:56:00,50.3,24.4,30.27,NW,308,3.0,3.0,36,0.00,,---,0.00,VWS V14.01,2013-02-18 19:56:00,
2013-02-18 15:01:00,50.6,24.0,30.27,NW,305,5.0,5.0,35,0.00,,---,0.00,VWS V14.01,2013-02-18 20:01:00,
2013-02-18 15:06:00,50.6,24.6,30.27,WSW,252,2.0,4.0,36,0.00,,---,0.00,VWS V14.01,2013-02-18 20:06:00,
2013-02-18 15:11:00,50.6,24.6,30.26,WNW,291,4.0,8.0,36,0.00,,---,0.00,VWS V14.01,2013-02-18 20:11:00,
2013-02-18 15:16:00,50.6,24.0,30.26,WNW,298,3.0,6.0,35,0.00,,---,0.00,VWS V14.01,2013-02-18 20:16:00,
2013-02-18 15:21:00,50.3,23.7,30.26,WNW,285,1.0,4.0,35,0.00,,---,0.00,VWS V14.01,2013-02-18 20:21:00,
2013-02-18 15:26:00,50.3,23.7,30.26,WNW,282,2.0,6.0,35,0.00,,---,0.00,VWS V14.01,2013-02-18 20:26:00,
2013-02-18 15:31:00,50.3,23.0,30.26,South,191,2.0,7.0,34,0.00,,---,0.00,VWS V14.01,2013-02-18 20:31:00,
2013-02-18 15:36:00,50.0,23.4,30.26,NW,309,2.0,8.0,35,0.00,,---,0.00,VWS V14.01,2013-02-18 20:36:00,
2013-02-18 15:41:00,50.0,23.4,30.26,WNW,282,5.0,5.0,35,0.00,,---,0.00,VWS V14.01,2013-02-18 20:41:00,
2013-02-18 15:46:00,49.8,23.9,30.27,WSW,255,7.0,11.0,36,0.00,,---,0.00,VWS V14.01,2013-02-18 20:46:00,
2013-02-18 15:51:00,49.8,24.6,30.27,WSW,242,5.0,5.0,37,0.00,,---,0.00,VWS V14.01,2013-02-18 20:51:00,
2013-02-18 15:56:00,49.8,23.9,30.27,WSW,249,3.0,6.0,36,0.00,,---,0.00,VWS V14.01,2013-02-18 20:56:00,
2013-02-18 16:01:00,49.6,23.8,30.26,SW,217,3.0,5.0,36,0.00,,---,0.00,VWS V14.01,2013-02-18 21:01:00,
2013-02-18 16:06:00,49.5,23.0,30.26,NW,314,2.0,4.0,35,0.00,,---,0.00,VWS V14.01,2013-02-18 21:06:00,
2013-02-18 16:11:00,49.4,23.6,30.26,SW,219,3.0,3.0,36,0.00,,---,0.00,VWS V14.01,2013-02-18 21:11:00,
2013-02-18 16:16:00,49.4,24.2,30.27,West,281,4.0,8.0,37,0.00,,---,0.00,VWS V14.01,2013-02-18 21:16:00,
2013-02-18 16:21:00,49.3,24.1,30.27,NW,307,5.0,9.0,37,0.00,,---,0.00,VWS V14.01,2013-02-18 21:21:00,
2013-02-18 16:26:00,49.3,23.5,30.26,WNW,290,4.0,4.0,36,0.00,,---,0.00,VWS V14.01,2013-02-18 21:26:00,
2013-02-18 16:31:00,49.2,23.4,30.26,SSW,212,1.0,2.0,36,0.00,,---,0.00,VWS V14.01,2013-02-18 21:31:00,
2013-02-18 16:36:00,49.2,24.1,30.26,SSW,201,1.0,5.0,37,0.00,,---,0.00,VWS V14.01,2013-02-18 21:36:00,
2013-02-18 16:41:00,49.1,24.0,30.26,North,9,5.0,5.0,37,0.00,,---,0.00,VWS V14.01,2013-02-18 21:41:00,
2013-02-18 16:46:00,48.9,23.1,30.25,WNW,295,8.0,10.0,36,0.00,,---,0.00,VWS V14.01,2013-02-18 21:46:00,
2013-02-18 16:51:00,48.7,23.6,30.25,WNW,295,5.0,5.0,37,0.00,,---,0.00,VWS V14.01,2013-02-18 21:51:00,
2013-02-18 16:56:00,48.3,23.3,30.26,NW,323,2.0,4.0,37,0.00,,---,0.00,VWS V14.01,2013-02-18 21:56:00,
2013-02-18 17:01:00,47.9,22.9,30.25,WSW,243,1.0,3.0,37,0.00,,---,0.00,VWS V14.01,2013-02-18 22:01:00,
2013-02-18 17:06:00,47.6,23.3,30.25,WNW,283,5.0,6.0,38,0.00,,---,0.00,VWS V14.01,2013-02-18 22:06:00,
2013-02-18 17:11:00,47.2,22.9,30.25,WNW,287,11.0,11.0,38,0.00,,---,0.00,VWS V14.01,2013-02-18 22:11:00,
2013-02-18 17:16:00,46.8,23.2,30.25,WNW,301,2.0,2.0,39,0.00,,---,0.00,VWS V14.01,2013-02-18 22:16:00,
2013-02-18 17:21:00,46.6,23.0,30.25,NNW,329,2.0,4.0,39,0.00,,---,0.00,VWS V14.01,2013-02-18 22:21:00,
2013-02-18 17:26:00,46.4,23.4,30.25,SSE,162,1.0,5.0,40,0.00,,---,0.00,VWS V14.01,2013-02-18 22:26:00,
2013-02-18 17:31:00,46.2,23.2,30.25,WNW,298,3.0,6.0,40,0.00,,---,0.00,VWS V14.01,2013-02-18 22:31:00,
2013-02-18 17:36:00,45.9,23.5,30.24,SE,136,0.0,1.0,41,0.00,,---,0.00,VWS V14.01,2013-02-18 22:36:00,
2013-02-18 17:41:00,45.7,23.4,30.24,SW,220,1.0,5.0,41,0.00,,---,0.00,VWS V14.01,2013-02-18 22:41:00,
2013-02-18 17:46:00,45.6,23.3,30.24,WSW,257,1.0,1.0,41,0.00,,---,0.00,VWS V14.01,2013-02-18 22:46:00,
2013-02-18 17:51:00,45.4,23.1,30.24,West,271,3.0,4.0,41,0.00,,---,0.00,VWS V14.01,2013-02-18 22:51:00,
2013-02-18 17:56:00,45.1,23.4,30.24,West,278,4.0,5.0,42,0.00,,---,0.00,VWS V14.01,2013-02-18 22:56:00,
2013-02-18 18:01:00,45.1,23.4,30.25,NW,313,4.0,5.0,42,0.00,,---,0.00,VWS V14.01,2013-02-18 23:01:00,
2013-02-18 18:06:00,45.1,23.4,30.24,NW,319,0.0,3.0,42,0.00,,---,0.00,VWS V14.01,2013-02-18 23:06:00,
2013-02-18 18:11:00,44.8,23.1,30.25,NW,318,2.0,2.0,42,0.00,,---,0.00,VWS V14.01,2013-02-18 23:11:00,
2013-02-18 18:16:00,44.7,23.6,30.25,SSE,166,0.0,3.0,43,0.00,,---,0.00,VWS V14.01,2013-02-18 23:16:00,
2013-02-18 18:21:00,44.4,22.8,30.25,NW,322,1.0,3.0,42,0.00,,---,0.00,VWS V14.01,2013-02-18 23:21:00,
2013-02-18 18:26:00,44.3,22.7,30.25,NW,311,2.0,4.0,42,0.00,,---,0.00,VWS V14.01,2013-02-18 23:26:00,
2013-02-18 18:31:00,44.0,23.5,30.25,NNW,333,1.0,1.0,44,0.00,,---,0.00,VWS V14.01,2013-02-18 23:31:00,
2013-02-18 18:36:00,43.8,23.3,30.25,NNW,330,0.0,0.0,44,0.00,,---,0.00,VWS V14.01,2013-02-18 23:36:00,
2013-02-18 18:41:00,43.6,23.1,30.25,NW,311,3.0,4.0,44,0.00,,---,0.00,VWS V14.01,2013-02-18 23:41:00,
2013-02-18 18:47:00,43.4,24.0,30.25,NW,309,2.0,5.0,46,0.00,,---,0.00,VWS V14.01,2013-02-18 23:47:00,
2013-02-18 18:51:00,43.4,23.5,30.25,ESE,103,3.0,3.0,45,0.00,,---,0.00,VWS V14.01,2013-02-18 23:51:00,
2013-02-18 18:57:00,43.2,23.3,30.25,NW,304,3.0,4.0,45,0.00,,---,0.00,VWS V14.01,2013-02-18 23:57:00,
2013-02-18 19:02:00,42.7,23.9,30.25,North,356,1.0,1.0,47,0.00,,---,0.00,VWS V14.01,2013-02-19 00:02:00,
2013-02-18 19:07:00,42.5,22.7,30.24,ESE,117,3.0,4.0,45,0.00,,---,0.00,VWS V14.01,2013-02-19 00:07:00,
2013-02-18 19:12:00,42.5,22.7,30.24,SW,231,4.0,5.0,45,0.00,,---,0.00,VWS V14.01,2013-02-19 00:12:00,
2013-02-18 19:17:00,42.5,22.1,30.24,NW,315,1.0,2.0,44,0.00,,---,0.00,VWS V14.01,2013-02-19 00:17:00,
2013-02-18 19:22:00,42.5,22.7,30.25,WNW,283,0.0,2.0,45,0.00,,---,0.00,VWS V14.01,2013-02-19 00:22:00,
2013-02-18 19:27:00,42.1,22.3,30.25,WNW,300,5.0,5.0,45,0.00,,---,0.00,VWS V14.01,2013-02-19 00:27:00,
2013-02-18 19:32:00,42.1,22.8,30.25,East,98,1.0,2.0,46,0.00,,---,0.00,VWS V14.01,2013-02-19 00:32:00,
2013-02-18 19:37:00,42.0,22.7,30.25,NW,319,0.0,2.0,46,0.00,,---,0.00,VWS V14.01,2013-02-19 00:37:00,
2013-02-18 19:42:00,42.0,22.2,30.24,WNW,300,2.0,3.0,45,0.00,,---,0.00,VWS V14.01,2013-02-19 00:42:00,
2013-02-18 19:47:00,41.9,22.6,30.24,NNE,16,0.0,0.0,46,0.00,,---,0.00,VWS V14.01,2013-02-19 00:47:00,
2013-02-18 19:52:00,41.8,22.5,30.24,NNW,334,6.0,6.0,46,0.00,,---,0.00,VWS V14.01,2013-02-19 00:52:00,
2013-02-18 19:57:00,41.8,23.1,30.24,WNW,293,3.0,4.0,47,0.00,,---,0.00,VWS V14.01,2013-02-19 00:57:00,
2013-02-18 20:02:00,41.6,21.9,30.23,NW,314,1.0,2.0,45,0.00,,---,0.00,VWS V14.01,2013-02-19 01:02:00,
2013-02-18 20:07:00,41.6,22.9,30.24,WNW,288,0.0,0.0,47,0.00,,---,0.00,VWS V14.01,2013-02-19 01:07:00,
2013-02-18 20:12:00,41.1,22.4,30.24,ENE,68,2.0,2.0,47,0.00,,---,0.00,VWS V14.01,2013-02-19 01:12:00,
2013-02-18 20:17:00,40.8,22.6,30.23,NE,55,2.0,3.0,48,0.00,,---,0.00,VWS V14.01,2013-02-19 01:17:00,
2013-02-18 20:22:00,40.4,22.3,30.23,East,86,2.0,2.0,48,0.00,,---,0.00,VWS V14.01,2013-02-19 01:22:00,
2013-02-18 20:27:00,40.6,22.5,30.23,NNW,336,1.0,3.0,48,0.00,,---,0.00,VWS V14.01,2013-02-19 01:27:00,
2013-02-18 20:32:00,40.6,23.0,30.23,NE,34,0.0,2.0,49,0.00,,---,0.00,VWS V14.01,2013-02-19 01:32:00,
2013-02-18 20:37:00,40.6,22.5,30.23,NNW,342,0.0,0.0,48,0.00,,---,0.00,VWS V14.01,2013-02-19 01:37:00,
2013-02-18 20:42:00,40.7,22.1,30.23,SW,235,0.0,2.0,47,0.00,,---,0.00,VWS V14.01,2013-02-19 01:42:00,
2013-02-18 20:47:00,40.8,22.1,30.23,NNE,23,2.0,2.0,47,0.00,,---,0.00,VWS V14.01,2013-02-19 01:47:00,
2013-02-18 20:52:00,40.8,22.1,30.23,NNE,27,3.0,4.0,47,0.00,,---,0.00,VWS V14.01,2013-02-19 01:52:00,
2013-02-18 20:57:00,40.7,22.5,30.23,ENE,60,6.0,7.0,48,0.00,,---,0.00,VWS V14.01,2013-02-19 01:57:00,
2013-02-18 21:02:00,40.8,22.1,30.23,ENE,61,0.0,3.0,47,0.00,,---,0.00,VWS V14.01,2013-02-19 02:02:00,
2013-02-18 21:07:00,40.9,22.7,30.23,East,82,0.0,2.0,48,0.00,,---,0.00,VWS V14.01,2013-02-19 02:07:00,
2013-02-18 21:12:00,40.7,22.5,30.22,NE,37,3.0,3.0,48,0.00,,---,0.00,VWS V14.01,2013-02-19 02:12:00,
2013-02-18 21:17:00,40.6,22.5,30.22,ENE,58,0.0,3.0,48,0.00,,---,0.00,VWS V14.01,2013-02-19 02:17:00,
2013-02-18 21:22:00,40.7,22.5,30.23,NE,56,1.0,4.0,48,0.00,,---,0.00,VWS V14.01,2013-02-19 02:22:00,
2013-02-18 21:27:00,40.9,23.2,30.23,SSW,208,1.0,1.0,49,0.00,,---,0.00,VWS V14.01,2013-02-19 02:27:00,
2013-02-18 21:32:00,40.4,23.2,30.23,East,86,2.0,3.0,50,0.00,,---,0.00,VWS V14.01,2013-02-19 02:32:00,
2013-02-18 21:37:00,40.6,22.5,30.22,NW,323,4.0,4.0,48,0.00,,---,0.00,VWS V14.01,2013-02-19 02:37:00,
2013-02-18 21:42:00,40.7,23.0,30.22,NNW,335,0.0,0.0,49,0.00,,---,0.00,VWS V14.01,2013-02-19 02:42:00,
2013-02-18 21:47:00,40.6,22.5,30.21,NW,315,0.0,2.0,48,0.00,,---,0.00,VWS V14.01,2013-02-19 02:47:00,
2013-02-18 21:52:00,39.8,23.6,30.22,NNW,346,0.0,2.0,52,0.00,,---,0.00,VWS V14.01,2013-02-19 02:52:00,
2013-02-18 21:57:00,39.7,22.6,30.21,WNW,302,2.0,2.0,50,0.00,,---,0.00,VWS V14.01,2013-02-19 02:57:00,
2013-02-18 22:02:00,39.7,22.6,30.21,WNW,295,4.0,4.0,50,0.00,,---,0.00,VWS V14.01,2013-02-19 03:02:00,
2013-02-18 22:08:00,39.7,23.1,30.20,NNE,12,0.0,0.0,51,0.00,,---,0.00,VWS V14.01,2013-02-19 03:08:00,
2013-02-18 22:13:00,39.1,22.5,30.20,NE,39,11.0,11.0,51,0.00,,---,0.00,VWS V14.01,2013-02-19 03:13:00,
2013-02-18 22:18:00,39.6,22.5,30.20,NW,322,0.0,0.0,50,0.00,,---,0.00,VWS V14.01,2013-02-19 03:18:00,
2013-02-18 22:23:00,39.6,23.0,30.19,East,89,2.0,2.0,51,0.00,,---,0.00,VWS V14.01,2013-02-19 03:23:00,
2013-02-18 22:28:00,38.8,23.1,30.20,SE,130,1.0,1.0,53,0.00,,---,0.00,VWS V14.01,2013-02-19 03:28:00,
2013-02-18 22:33:00,39.2,22.6,30.19,East,83,1.0,2.0,51,0.00,,---,0.00,VWS V14.01,2013-02-19 03:33:00,
2013-02-18 22:38:00,39.1,23.0,30.19,East,99,1.0,2.0,52,0.00,,---,0.00,VWS V14.01,2013-02-19 03:38:00,
2013-02-18 22:43:00,39.3,22.7,30.19,NW,323,3.0,3.0,51,0.00,,---,0.00,VWS V14.01,2013-02-19 03:43:00,
2013-02-18 22:48:00,39.5,22.9,30.18,NW,320,3.0,3.0,51,0.00,,---,0.00,VWS V14.01,2013-02-19 03:48:00,
2013-02-18 22:53:00,39.5,22.4,30.19,SSE,162,0.0,4.0,50,0.00,,---,0.00,VWS V14.01,2013-02-19 03:53:00,
2013-02-18 22:58:00,39.7,22.6,30.19,ENE,65,1.0,4.0,50,0.00,,---,0.00,VWS V14.01,2013-02-19 03:58:00,
2013-02-18 23:03:00,39.7,23.1,30.19,NW,311,2.0,7.0,51,0.00,,---,0.00,VWS V14.01,2013-02-19 04:03:00,
2013-02-18 23:08:00,39.6,23.0,30.19,ENE,76,3.0,5.0,51,0.00,,---,0.00,VWS V14.01,2013-02-19 04:08:00,
2013-02-18 23:13:00,39.6,23.0,30.19,NW,307,3.0,5.0,51,0.00,,---,0.00,VWS V14.01,2013-02-19 04:13:00,
2013-02-18 23:18:00,39.4,22.8,30.19,WNW,288,1.0,3.0,51,0.00,,---,0.00,VWS V14.01,2013-02-19 04:18:00,
2013-02-18 23:23:00,39.3,23.2,30.18,ENE,64,2.0,7.0,52,0.00,,---,0.00,VWS V14.01,2013-02-19 04:23:00,
2013-02-18 23:28:00,39.3,23.2,30.19,ESE,105,2.0,4.0,52,0.00,,---,0.00,VWS V14.01,2013-02-19 04:28:00,
2013-02-18 23:33:00,39.3,23.2,30.18,NNE,32,0.0,8.0,52,0.00,,---,0.00,VWS V14.01,2013-02-19 04:33:00,
2013-02-18 23:38:00,39.2,23.1,30.17,West,281,2.0,2.0,52,0.00,,---,0.00,VWS V14.01,2013-02-19 04:38:00,
2013-02-18 23:43:00,39.1,23.0,30.17,NW,311,1.0,3.0,52,0.00,,---,0.00,VWS V14.01,2013-02-19 04:43:00,
2013-02-18 23:48:00,39.2,23.1,30.17,SSW,194,0.0,1.0,52,0.00,,---,0.00,VWS V14.01,2013-02-19 04:48:00,
2013-02-18 23:53:00,39.1,23.0,30.17,WNW,285,3.0,5.0,52,0.00,,---,0.00,VWS V14.01,2013-02-19 04:53:00,
2013-02-18 23:58:00,39.1,23.0,30.18,NNW,333,7.0,9.0,52,0.00,,---,0.00,VWS V14.01,2013-02-19 04:58:00,